Regional Weather Roundup
Issued by NWS

Home | Current Version | Previous Version | Text Only | Print | Product List | Glossary On
Versions: 1 2 3 4 5 6 7 8 9 10 11 12 13 14 15 16 17 18 19 20 21 22 23 24 25 26 27 28 29 30 31 32 33 34 35 36 37 38 39 40 41 42 43 44 45 46 47 48 49 50
000
ASUS43 KMKX 250521
RWRWI

WISCONSIN REGIONAL WEATHER ROUNDUP
NATIONAL WEATHER SERVICE MILWAUKEE/SULLIVAN WI
1200 AM CDT SAT OCT 25 2014

NOTE: "FAIR" INDICATES FEW OR NO CLOUDS BELOW 12,000 FEET WITH NO
SIGNIFICANT WEATHER AND/OR OBSTRUCTIONS TO VISIBILITY.

WIZ001-002-006>008-014>016-023>028-250600-
NORTHWEST WISCONSIN

CITY           SKY/WX    TMP DP  RH WIND       PRES   REMARKS
SUPERIOR ARPT  FAIR      55  45  69 SW9       29.78R
ASHLAND        PTCLDY    56  51  84 SW10      29.78R
HAYWARD        MOCLDY    53  51  93 CALM      29.81S FOG
SIREN          PTCLDY    57  47  71 W7        29.84R
CUMBERLAND     PTCLDY    50  48  93 W3        29.84S FOG
RICE LAKE      FOG       51  49  95 CALM      29.85S VSB<1/4
CHETEK         FOG       51  51  99 CALM      29.84S VSB 3/4
LADYSMITH      CLOUDY    56  54  94 SW8       29.85F FOG
EAU CLAIRE     FOG       48  47  96 SW6       29.84F VSB 1/4
MENOMONIE      FOG       47  47  99 CALM      29.85F VSB<1/4
NEW RICHMOND   CLEAR     51  51 100 W9        29.86R
OSCEOLA        CLEAR     51  51  99 W8        29.88R
$$

WIZ003>005-009-010-017-018-250600-
NORTH CENTRAL WISCONSIN

CITY           SKY/WX    TMP DP  RH WIND       PRES   REMARKS
MANITOWISH WTR MOCLDY    52  52  99 SW8       29.79S
ARBOR VITAE    PTCLDY    55  52  90 SW6       29.80F
WOODRUFF       PTCLDY    55  52  90 SW6       29.80F
RHINELANDER    CLOUDY    53  51  93 SW9       29.82F
EAGLE RIVER    MOCLDY    52  51  93 SW8       29.79F
LAND O LAKES   PTCLDY    54  50  87 SW7       29.79F
PHILLIPS       CLOUDY    54  52  94 SW8       29.81S
TOMAHAWK       MOCLDY    54  51  90 W3        29.83S
MEDFORD        CLOUDY    54  53  97 W6        29.85S FOG
MERRILL        CLOUDY    55  54  94 W7        29.83F
$$

WIZ029-030-035-036-043>047-250600-
CENTRAL WISCONSIN

CITY           SKY/WX    TMP DP  RH WIND       PRES   REMARKS
WAUSAU         CLOUDY    56  53  90 W9        29.82F
MOSINEE        CLOUDY    54  54 100 W7        29.85F
MARSHFIELD     CLOUDY    56  54  93 W10       29.85F FOG
STEVENS POINT  CLOUDY    55  53  92 W6        29.86F
WAUPACA        CLOUDY    58  55  90 SW6       29.84F
WAUTOMA        CLOUDY    55  53  93 SW6       29.86F
WISC RAPIDS    CLOUDY    56  55  97 W7        29.87F FOG
CAMP DOUGLAS   NOT AVBL
$$

WIZ011>013-019>022-031-037>040-048>050-250600-
NORTHEAST WISCONSIN

CITY           SKY/WX    TMP DP  RH WIND       PRES   REMARKS
ANTIGO         CLOUDY    54  52  95 W10       29.83S
SHAWANO        CLOUDY    54  51  89 SW5       29.82F
OCONTO         CLOUDY    52  51  98 SW5       29.80F
STURGEON BAY   CLOUDY    52  48  87 SW7       29.82F
GREEN BAY      MOCLDY    53  50  89 S7        29.83F
MANITOWOC      CLOUDY    52  50  93 S7        29.85F
APPLETON       CLOUDY    50  48  93 SW8       29.84F
CLINTONVILLE   CLOUDY    54  52  94 SW5       29.83F
OSHKOSH        CLOUDY    56  51  84 SW6       29.85F
$$

WIZ032>034-041-042-053>061-250600-
SOUTHWEST WISCONSIN

CITY           SKY/WX    TMP DP  RH WIND       PRES   REMARKS
LA CROSSE      MOCLDY    57  54  89 SW6       29.89S
SPARTA         CLOUDY    55  55  98 CALM      29.90S FOG
VIROQUA        CLOUDY    57  57 100 W8        29.91R
BOSCOBEL       CLOUDY    60  57  89 SW6       29.91F FOG
PRAIRIE DU CHI CLOUDY    59  57  93 W3        29.91F FOG
PLATTEVILLE    CLOUDY    56  55  97 SW6       29.92F VSB 1
$$

WIZ056-057-062-063-064-067-068-250600-
SOUTH CENTRAL WISCONSIN

CITY           SKY/WX    TMP DP  RH WIND       PRES   REMARKS
REEDSBURG      CLOUDY    56  54  94 W5        29.88F FOG
BARABOO/DELLS  CLOUDY    56  54  91 W6        29.88F FOG
LONE ROCK      HAZE      59  54  83 W7        29.90S VSB 1
MINERAL POINT  CLOUDY    59  55  88 W9        29.91F FOG
MADISON        CLOUDY    55  50  83 CALM      29.89F
MIDDLETON      MOCLDY    58  56  94 SW5       29.89F
WATERTOWN      CLOUDY    54  50  88 SW6       29.88F
MONROE         MOCLDY    55  54  94 SW8       29.91F
JANESVILLE     CLOUDY    57  48  72 SW6       29.90F
$$

WIZ051-052-058>065-066-070>072-250600-
SOUTHEAST WISCONSIN

CITY           SKY/WX    TMP DP  RH WIND       PRES   REMARKS
MILWAUKEE      CLOUDY    56  49  77 SW8       29.90F
WAUKESHA       CLOUDY    52  48  87 S7        29.90F
MILWAUKEE/TIMM CLOUDY    55  46  71 S5        29.89F
RACINE         CLOUDY    57  48  72 SW8       29.91F
BURLINGTON     MOCLDY    53  47  82 SW7       29.90F
KENOSHA        CLOUDY    56  50  80 SW5       29.91F
FOND DU LAC    CLOUDY    55  49  80 SW8       29.86F
SHEBOYGAN      CLOUDY    51  49  92 S7        29.85F
WEST BEND      CLOUDY    57  45  62 SW8       29.86F
JUNEAU         CLOUDY    52  49  90 S8        29.88F
$$

LSZ147-162-250600-
LAKE SUPERIOR

STATION/POSITION TIME  TEMP    WIND        PRES    WAVE
                       AIR SEA DIR/SP/G            HT/PER
                 (UTC) (F)     (DEG/KT/KT) (MB)    (FT/S)
W MID LAKE BUOY  0450   51 46  230/ 17/ 21 1004.2R   4/ 5
DEVILS ISLAND    0500   56     240/ 23/ 27 1006.1R
PORT WING        0400   60     210/  8/ 12 1007.5R
SAXON HARBOR     0440   60     200/ 11/ 22 1007.5R
$$

LMZ867-665-643>646-250600-
LAKE MICHIGAN

STATION/POSITION TIME  TEMP    WIND        PRES    WAVE
                       AIR SEA DIR/SP/G            HT/PER
                 (UTC) (F)     (DEG/KT/KT) (MB)    (FT/S)
CHAMBERS ISLAND  0400   51     180/  8/ 13 1009.8
N MID LAKE BUOY  0450   50 51  210/ 19/ 25 1008.7F   5/ 6
NORTHPORT PIER   0500   51     160/  4/ 14 1008.8F
SISTER BAY       0342          170/ 11/ 14   N/A
ALGOMA LAKESHORE 0341          220/ 14/ 16   N/A
KEWAUNEE LAKESHO 0500   53     200/  7/  8 1009.5F
SHEBOYGAN LAKESH 0500   53 51  190/  8/  9 1011.3F
PORT WASHINGTON  0400   53     180/  3/  4 1012.9F
ATWATER BUOY     0500   55     190/  8/  8 1012.9F
MILWAUKEE LAKESH 0500   59     230/  7/  8   N/A
S MID LAKE BUOY  0450   56 54  190/ 10/ 10 1013.0F   1/ 2
KENOSHA   LAKESH 0500   57     220/  5/  6 1012.5F
$$

TC  - TEMPERATURE IN CELSIUS
VSB - VISIBILITY IN STATUTE MILES
WCI - WIND CHILL INDEX
HX  - HEAT INDEX




USA.gov is the U.S. government's official web portal to all federal, state and local government web resources and services.